Orbital Elements at Epoch 2459200.5 (2020-Dec-17.0) TDB
Reference: JPL 18 (heliocentric ecliptic J2000)
Element | Value | Uncertainty (1-sigma) | Units |
e | .1652701094856665 | 5.0184e-08 | |
a | 2.996215146757001 | 2.9717e-08 | au |
q | 2.501030341409859 | 1.4446e-07 | au |
i | 3.918992098812708 | 5.5194e-06 | deg |
node | 262.8066696957751 | 0.00010964 | deg |
peri | 9.674211111874335 | 0.00011224 | deg |
M | 98.59311535780536 | 2.6508e-05 | deg |
tp | 2458681.697561645798 (2019-Jul-17.19756165) | 0.00013661 | TDB |
period | 1894.339955986863 5.19 | 2.8182e-05 7.716e-08 | d yr |
n | .1900398071963048 | 2.8272e-09 | deg/d |
Q | 3.491399952104143 | 3.4628e-08 | au |
|
| | Orbit Determination Parameters
Additional Information
|